VINASAT-2

Last updated on Tue Sep 16 2025 00:02:47 GMT+0000 (Coordinated Universal Time)

1 38332U 12023B 25258.56338328 -.00000345 00000+0 00000+0 0 9998 2 38332 0.0381 326.0526 0002062 212.4254 150.9611 1.00271796 43909
UTC large
Height (km)
Speed (km/s)
/
Latitude / Longitude
Inclination (degrees)
Orbital Period (minutes)
Azimuth
Elevation
Range (km)
Doppler Factor

Next 0 passes for location: London (51.5072 / 0.1276)

Sorry there are no passes over London.